Flag for Germany Weather past 2 weeks in Soltau, Lower Saxony, Germany

Now
61 °F

Passing clouds.


Feels Like: 61 °F
Forecast: 53 / 64 °F
Wind: 7 mph from Southwest

Location: Fassberg

Current Time: Aug 30, 2014 at 10:23:17 PM

Latest Report: Aug 30, 2014 at 9:20 PM


Visibility: 4 mi

Pressure: 29.95 "Hg

Humidity: 94%

Dew point: 59 °F

Location of SoltauLocation

Historic Weather in Soltau — Graph

°F

Soltau temperature yesterday

Maximum temperature yesterday: 72 °F (at 5:20 PM)
Minimum temperature yesterday: 55 °F (at 10:20 PM)
Average temperature yesterday: 63 °F

Past Weeks' High & Low Weather Summary

 TemperatureHumidityPressure
High73 °F (Aug 28, 2:20 PM)100% (Aug 16, 2:20 AM)30.07 "Hg (Aug 16, 2:20 AM)
Low37 °F (Aug 28, 6:20 AM)36% (Aug 28, 3:20 PM)29.56 "Hg (Aug 18, 9:20 AM)
Average56 °F78%29.89 "Hg
* Reported Aug 15 8:20 PM — Aug 30 8:20 PM, Soltau, Weather by CustomWeather, © 2014

Note: Actual official high and low records may vary slightly from our data, if they occured in-between our weather recording intervals... More about our weather records

Advertising

Soltau weather history for previous 24 hours

 ConditionsComfort  
Time TempWeatherWind HumidityBarometerVisibility
8:20 PM
Aug 30
61 °FPartly sunny.9 mph94%29.95 "Hg6 mi
7:20 PM61 °FRain. Partly sunny.6 mph94%29.95 "Hg4 mi
6:20 PM61 °FPartly sunny.9 mph94%29.95 "Hg6 mi
5:20 PM61 °FRain. Partly sunny.8 mph94%29.98 "HgN/A
4:20 PM64 °FPartly sunny.10 mph78%29.98 "HgN/A
3:20 PM66 °FPartly sunny.9 mph73%29.98 "HgN/A
2:20 PM64 °FPartly sunny.10 mph78%29.98 "HgN/A
1:20 PM63 °FPartly sunny.9 mph83%29.98 "HgN/A
12:20 PM61 °FLight rain. Partly sunny.9 mph88%29.98 "HgN/A
11:20 AM61 °FPartly sunny.13 mph83%29.98 "HgN/A
10:20 AM61 °FLight rain. Partly sunny.13 mph83%29.98 "HgN/A
9:20 AM63 °FPartly sunny.13 mph77%29.98 "HgN/A
8:20 AM59 °FPartly sunny.7 mph82%29.98 "HgN/A
7:20 AM57 °FPassing clouds.7 mph88%29.98 "HgN/A
6:20 AM59 °FPartly cloudy.7 mph88%29.98 "HgN/A
5:20 AM59 °FPassing clouds.7 mph88%29.98 "HgN/A
4:20 AM57 °FPassing clouds.5 mph94%29.98 "HgN/A
3:20 AM57 °FPassing clouds.3 mph94%29.98 "Hg6 mi
2:20 AM57 °FPartly cloudy.5 mph94%29.98 "HgN/A
1:20 AM57 °FPassing clouds.6 mph94%29.98 "HgN/A
12:20 AM54 °FPassing clouds.1 mph94%29.98 "HgN/A
11:20 PM
Aug 29
55 °FPartly cloudy.1 mph82%29.98 "HgN/A
10:20 PM55 °FPassing clouds.3 mph88%29.98 "HgN/A
Weather by CustomWeather, © 2014

See weather overviewHow to use our weather pages